Regional Weather Roundup
Issued by NWS

Home | Current Version | Previous Version | Text Only | Print | Product List | Glossary Off
Versions: 1 2 3 4 5 6 7 8 9 10 11 12 13 14 15 16 17 18 19 20 21 22 23 24 25 26 27 28 29 30 31 32 33 34 35 36 37 38 39 40 41 42 43 44 45 46 47 48 49

941
ASUS45 KBOU 060407
RWRCO

WEATHER ROUNDUP FOR COLORADO
NATIONAL WEATHER SERVICE DENVER/BOULDER CO
900 PM MST MON DEC 05 2016

NOTE: "FAIR" INDICATES FEW OR NO CLOUDS BELOW 12000 FEET WITH NO
SIGNIFICANT WEATHER AND/OR OBSTRUCTIONS TO VISIBILITY.

COZ001>005-013-030-031-060500-
...NORTHWEST COLORADO...

CITY           SKY/WX    TMP DP  RH WIND       PRES   REMARKS
CRAIG          FAIR       9  -3  58 CALM      29.98R
HAYDEN         FAIR       9  -9  43 SW3       29.95R
MEEKER         FAIR       7   0  73 CALM      29.97R
MOUNT WERNER   NOT AVBL
STEAMBOAT SPGS CLOUDY    13  -7  42 CALM      29.93R
WALDEN           N/A      3 -13  47 W8        29.85R WCI -10
$$

COZ006>008-011-060500-
...WEST CENTRAL VALLEYS...

CITY           SKY/WX    TMP DP  RH WIND       PRES   REMARKS
GRAND JUNCTION FAIR      25   6  44 N7        29.97R WCI  17
MONTROSE       FAIR      26  10  50 NE8       29.96R WCI  18
EAGLE          CLOUDY    20   7  57 E10       29.93R WCI   9
RIFLE          MOCLDY    26   1  34 NW13      29.97R WCI  15
DELTA          FAIR      33   4  29 W15G23    29.93R WCI  23
NUCLA          FAIR      32  14  47 NW3       29.94R
$$

COZ017>023-064>068-060500-
...SOUTHWEST COLORADO...

CITY           SKY/WX    TMP DP  RH WIND       PRES   REMARKS
DURANGO        FAIR      28  16  60 CALM      29.86S
CORTEZ         FAIR      28  21  75 NE6       29.89R WCI  22
PAGOSA SPRINGS FAIR      26  11  52 CALM      29.88S
TELLURIDE      NOT AVBL
WOLF CREEK PAS FAIR      12   0  57 SW15G23   29.89F WCI  -4
$$

COZ009-010-012-014-032>034-037-058>063-060500-
...CENTRAL COLORADO...

CITY           SKY/WX    TMP DP  RH WIND       PRES   REMARKS
ASPEN          CLOUDY    18   6  59 NW6       29.87R WCI  10
BUENA VISTA    FAIR      28   0  30 W8        29.78R WCI  19
COPPER MTN       N/A      5   0  78 MISG      29.70R
BERTHOUD PASS  LGT SNOW  -9 -20  59 MISG      29.62F
COTTONWOOD PAS CLOUDY    25   1  36 SW12      29.76R WCI  14
GUNNISON       FAIR      24  13  62 W7        29.85S WCI  16
KREMMLING      CLOUDY    19 -13  23 NW3       29.92R
LEADVILLE      FAIR      10   3  73 NW13G21   29.74R WCI  -5
MONARCH PASS   CLOUDY    10   5  79 SW33G45   29.85S WCI -13
SALIDA         FAIR      32   7  34 SW9G21    29.89R WCI  24
SUNLIGHT       CLOUDY     3   0  85 SW10G20   29.84R HAZE    WCI -12
WILKERSON PASS FAIR      12  -4  48 SW21G33   29.73S WCI  -6
$$

COZ069>075-060500-
...SAN LUIS VALLEY/SANGRE DE CRISTO MOUNTAINS...

CITY           SKY/WX    TMP DP  RH WIND       PRES   REMARKS
ALAMOSA        FAIR      22  12  65 SW5       29.83S WCI  16
LA VETA PASS   FAIR      23  12  63 NE14G24   29.84S WCI  11
SAGUACHE       FAIR      23  10  58 N9        29.85S WCI  13
$$

COZ035-036-038>040-060500-
...NORTHERN COLORADO FRONT RANGE...

CITY           SKY/WX    TMP DP  RH WIND       PRES   REMARKS
DENVER INTL AP FAIR      21   0  39 N12       29.86R WCI   9
DMNS CITY PARK   N/A     25   1  35 SW8G15    29.86R WCI  16
AURORA         PTCLDY    20   5  52 N14       29.85R WCI   6
FRONT RANGE AP NOT AVBL
ERIE MUNI ARPT MOCLDY    27  -3  27 W12       29.87R WCI  16
BOULDER MUN AP FAIR      28  -4  24 W31G44    29.83F WCI  12
CENTENNIAL     FAIR      20  -1  40 SE9       29.84R WCI   9
BROOMFIELD     MOCLDY    25  -2  30 W10G21    29.85R WCI  15
FORT COLLINS   FAIR      25  -8  24 NW8       29.89R WCI  16
LONGMONT       FAIR      28   2  33 N5        29.89R WCI  22
$$

COZ041-046-047-076>085-087-088-060500-
...PIKES PEAK/PALMER DIVIDE AND SOUTHERN FOOTHILLS...

CITY           SKY/WX    TMP DP  RH WIND       PRES   REMARKS
COLO. SPRINGS  FAIR      21  -5  31 N17G25    29.82R WCI   7
A. F. ACADEMY  FAIR      19  -4  36 N15       29.82R WCI   5
SCHRIEVER AFB  NOT AVBL
ELLICOTT       FAIR     N/A N/A N/A NE24G30     N/A
FALCON         FAIR      17  -7  34 N15G25    29.81F WCI   2
FORT CARSON    FAIR      23   0  36 N23G30    29.79S WCI   7
LIMON          FAIR      17   5  59 N13       29.88R WCI   4
MONUMENT HILL  FAIR      14  -6  41 NE10G16   29.84R WCI   1
TRINIDAD       FAIR      31   5  33 E10       29.88R WCI  22
$$

COZ042>045-048>051-090-091-060500-
...NORTHEAST COLORADO...

CITY           SKY/WX    TMP DP  RH WIND       PRES   REMARKS
GREELEY ARPT   FAIR      26  -6  24 NW26G40   29.90R WCI  10
AKRON          FAIR      16   7  67 N10       29.91R WCI   4
BURLINGTON     FAIR      25  11  55 N16       29.90R WCI  12
WRAY           NOT AVBL
STERLING       MOCLDY    23  12  63 NW9       29.93S WCI  13
HOLYOKE        FAIR      27  12  54 N13       29.94R WCI  16
FORT MORGAN    CLOUDY    25   1  35 N12G22    29.93S WCI  14
$$

COZ086-089-092>099-060500-
...SOUTHEAST COLORADO...

CITY           SKY/WX    TMP DP  RH WIND       PRES   REMARKS
PUEBLO         FAIR      26   0  32 NE7       29.87R WCI  18
LA JUNTA       FAIR      29   7  39 NE13      29.89R WCI  19
LAMAR          FAIR      31  10  41 NE14      29.88R WCI  21
SPRINGFIELD      N/A     28   8  43 N28G37    29.84R WCI  13
$$




USA.gov is the U.S. government's official web portal to all federal, state and local government web resources and services.